Left ArrowRight Arrow

44.31136, -96.79839

Hourly Observations for February 23, 2023

Temp ( °F °C ) Dew Point ( °F °C ) Humidity (%) Winds ( mph kmh ) Pressure ( in mb ) Visibility ( mi km ) Precip ( " mm )
12:11 am 00:11 Cloudy with Light Snow 5 -15 1 -17 85 85 NNE 18 30 29.95 1014 2 3 0.01 0.13
12:30 am 00:30 Windy with Snow Likely 5 -15 1 -17 85 85 NNE 20 31 29.95 1014 2 3 0.01 0.13
12:56 am 00:56 Windy with Snow Likely 5 -15 1 -17.2 83 83 NNE 21 33 29.90 1012 3 4 0.01 0.13
1:30 am 01:30 Cloudy with Light Snow 5 -15 1 -17 85 85 NNE 18 30 29.96 1015 3 5 0.01 0.13
1:54 am 01:54 Cloudy with Light Snow 5 -15 1 -17.2 83 83 NNE 17 28 29.96 1014 3 4 0.01 0.13
2:06 am 02:06 Cloudy with Light Snow 5 -15 1 -17 85 85 NNE 17 28 29.99 1016 4 6 0.01 0.13
2:28 am 02:28 Cloudy with Light Snow 7 -14 1 -17 78 78 N 15 24 30.01 1016 2 3 0.01 0.13
2:35 am 02:35 Cloudy with Light Snow 5 -15 1 -17 85 85 N 16 26 30.01 1016 2 3 0.01 0.13
2:56 am 02:56 Windy with Snow Likely 5 -15 1 -17.2 83 83 N 20 31 29.99 1016 1 1 0.01 0.13
3:56 am 03:56 Cloudy with Snow 4 -15.6 1 -17.2 87 87 N 14 22 30.02 1017 1 1 0.01 0.13
4:56 am 04:56 Cloudy with Light Snow 4 -15.6 1 -17.2 87 87 N 14 22 30.04 1017 1 2 0.01 0.13
5:07 am 05:07 Cloudy with Light Snow 3 -16 0 -18 84 84 N 16 26 30.07 1018 1 2 0.01 0.13
5:56 am 05:56 Cloudy with Light Snow 3 -16.1 -1 -18.3 83 83 N 15 24 30.09 1019 2 3 0.01 0.13
6:35 am 06:35 Cloudy with Light Snow 1 -17 -2 -19 84 84 N 16 26 30.16 1021 2 3 0.01 0.13
6:56 am 06:56 Cloudy with Light Snow 1 -17.2 -3 -19.4 83 83 N 17 28 30.14 1021 3 4 0.01 0.13
7:12 am 07:12 Cloudy with Light Snow 1 -17 -4 -20 77 77 N 16 26 30.18 1022 2 3 0.01 0.13
7:31 am 07:31 Cloudy with Light Snow 0 -18 -4 -20 84 84 N 17 28 30.21 1023 3 4 0.01 0.13
7:41 am 07:41 Cloudy with Light Snow 0 -18 -6 -21 77 77 N 14 22 30.22 1023 3 4 0.01 0.13
7:56 am 07:56 Cloudy with Light Snow 0 -17.8 -5 -20.6 79 79 N 16 26 30.20 1023 3 5 0.01 0.13
8:30 am 08:30 Cloudy with Light Snow 0 -18 -6 -21 77 77 NNW 15 24 30.26 1025 3 4 0.01 0.13
8:56 am 08:56 Cloudy with Light Snow 0 -17.8 -6 -21.1 75 75 NNW 16 26 30.24 1024 3 4 0.01 0.13
9:08 am 09:08 Cloudy with Haze 0 -18 -6 -21 77 77 NNW 17 28 30.28 1025 3 5 0.01 0.13
9:56 am 09:56 Cloudy with Light Snow 0 -17.8 -6 -21.1 75 75 NNW 17 28 30.27 1025 3 5 0.01 0.13
10:04 am 10:04 Cloudy with Haze 0 -18 -6 -21 77 77 N 15 24 30.32 1027 4 6 0.01 0.13
10:25 am 10:25 Cloudy with Haze 1 -17 -6 -21 71 71 NNW 18 30 30.33 1027 5 8 0.01 0.13
10:56 am 10:56 Cloudy with Haze 1 -17.2 -6 -21.1 71 71 NNW 17 28 30.33 1027 6 10 0.01 0.13
11:26 am 11:26 Cloudy with Haze 1 -17 -6 -21 71 71 NW 16 26 30.38 1029 3 4 0.00 0.00
11:32 am 11:32 Cloudy with Haze 1 -17 -6 -21 71 71 NNW 17 28 30.39 1029 3 5 0.00 0.00
11:56 am 11:56 Cloudy with Light Snow 1 -17.2 -5 -20.6 75 75 NW 18 30 30.37 1029 4 6 0.01 0.13
12:23 pm 12:23 Mostly Cloudy with Light Snow 1 -17 -6 -21 71 71 NW 18 30 30.41 1030 4 6 0.01 0.13
12:36 pm 12:36 Mostly Cloudy with Light Snow 1 -17 -6 -21 71 71 NW 17 28 30.41 1030 8 13 0.01 0.13
12:56 pm 12:56 Mostly Cloudy with Light Snow 1 -17.2 -6 -21.1 71 71 NNW 16 26 30.38 1029 9 14 0.01 0.13
1:56 pm 13:56 Windy with Snow Likely 0 -17.8 -7 -21.7 71 71 NNW 20 31 30.39 1029 6 10 0.01 0.13
2:56 pm 14:56 Sunny with Light Snow -1 -18.3 -8 -22.2 71 71 NW 15 24 30.44 1031 7 11 0.01 0.13
3:56 pm 15:56 Sunny with Light Snow -1 -18.3 -8 -22.2 71 71 NW 18 30 30.47 1032 9 14 0.01 0.13
4:56 pm 16:56 Sunny -4 -20 -10 -23.3 75 75 NW 17 28 N/A 9 14 0.01 0.13
5:56 pm 17:56 Sunny -6 -21.1 -12 -24.4 75 75 NW 12 19 30.58 1036 10 16 0.01 0.13
6:56 pm 18:56 Clear -8 -22.2 -14 -25.6 74 74 NNW 6 9 30.63 1037 10 16 0.00 0.00
7:56 pm 19:56 Clear -9 -22.8 -14 -25.6 78 78 NNW 10 17 30.66 1038 10 16 0.00 0.00
8:56 pm 20:56 Clear -11 -23.9 -16 -26.7 77 77 NNW 9 15 30.68 1039 10 16 0.00 0.00
9:56 pm 21:56 Clear -12 -24.4 -17 -27.2 77 77 NNW 12 19 N/A 10 16 0.00 0.00
10:15 pm 22:15 Mostly Clear -13 -25 -18 -28 76 76 NNW 10 17 N/A 10 16 0.00 0.00
10:56 pm 22:56 Clear -14 -25.6 -18 -27.8 82 82 NNW 7 11 30.74 1041 10 16 0.00 0.00
11:56 pm 23:56 Clear -15 -26.1 -19 -28.3 82 82 NW 3 6 30.75 1041 10 16 0.00 0.00

Powered by Vaisala Xweather